[[{"header":{"parameterUnit":"m.s-1","parameterCategory":2,"la1":30.2991,"la2":30.254,"lo1":-89.0895,"lo2":-89.0444,"dy":0.0017,"dx":0.0017,"nx":28,"ny":28,"refTime":"2025-01-02T09:00:00:Z","depth":"0","parameterNumber":2,"parameterNumberName":"U-component_of_CURRENTS"},"data":[0,0,0,0,0,0,0,0,0,0,0,0,0,0,0,0,0,0,0,0,0,0,0,0,0,0,0,0,0,0,0,0,0,0,0,0,0,0,0,0,0,0,0,0,0,0,0,0,0,0,0,0,0,0,0,0,0,0,-0.2971,-0.2971,0,-0.2961,-0.2961,-0.2961,-0.2985,-0.2986,-0.2987,-0.2987,-0.2976,-0.2975,-0.2974,0,0,0,0,0,0,0,0,0,0,0,0,0,-0.3045,-0.3043,-0.2971,-0.2971,-0.2971,-0.2961,-0.2961,-0.2961,-0.2985,-0.2986,-0.2987,-0.2988,-0.2977,-0.2976,-0.2974,0,0,0,0,0,0,0,0,0,0,0,0,0,-0.3021,-0.3043,-0.2971,-0.2982,-0.2983,-0.2961,-0.2961,-0.2961,-0.2985,-0.2986,-0.2987,-0.2988,-0.2977,-0.2976,-0.2974,-0.2941,0,0,-0.2969,-0.2969,0,0,0,0,0,0,0,0,-0.3023,-0.3018,-0.298,-0.2981,-0.2982,-0.2976,-0.2983,-0.2954,-0.2984,-0.2984,-0.2987,-0.2989,-0.2975,-0.2974,-0.2969,-0.2941,-0.294,-0.2969,-0.2968,-0.2968,-0.2967,0,0,0,0,0,0,0,-0.3024,-0.3019,-0.2967,-0.298,-0.2981,-0.2999,-0.2997,-0.2978,-0.2973,-0.2984,-0.2986,-0.2985,-0.2976,-0.2971,-0.2969,-0.294,-0.2969,-0.2968,-0.2967,-0.2966,-0.2893,-0.2892,0,0,0,0,0,0,-0.3022,-0.302,-0.2967,-0.2967,-0.3006,-0.2997,-0.2994,-0.2976,-0.2973,-0.2974,-0.2984,-0.2986,-0.2973,-0.2971,-0.2969,-0.2947,-0.2968,-0.2966,-0.2965,-0.2894,-0.2893,-0.2892,0,0,0,0,0,0,-0.3024,-0.3017,-0.2968,-0.2995,-0.299,-0.2994,-0.2974,-0.2976,-0.2967,-0.2973,-0.2974,-0.2974,-0.2974,-0.2971,-0.2951,-0.2946,-0.2966,-0.2964,-0.2895,-0.2893,-0.2892,-0.2891,0,0,0,0,0,0,-0.3025,-0.3017,-0.2995,-0.2994,-0.2988,-0.2946,-0.2973,-0.2975,-0.2965,-0.2968,-0.2964,-0.2965,-0.2974,-0.2954,-0.295,-0.2944,-0.2963,-0.2896,-0.2894,-0.2893,-0.2893,-0.289,-0.2887,0,0,0,0,0,-0.3028,-0.298,-0.2993,-0.2987,-0.296,-0.2945,-0.2943,-0.2951,-0.2964,-0.295,-0.2955,-0.2965,-0.2939,-0.2951,-0.2947,-0.2941,-0.2897,-0.2895,-0.2893,-0.2894,-0.289,-0.2888,0,0,0,0,0,0,-0.2991,-0.2978,-0.2993,-0.2942,-0.2946,-0.2949,-0.2923,-0.2941,-0.2933,-0.2934,-0.2948,-0.2948,-0.2934,-0.2926,-0.294,-0.2912,-0.292,-0.2917,-0.2922,-0.2919,-0.2917,-0.293,-0.2962,0,0,0,0,0,-0.2976,-0.2934,-0.2948,-0.2903,-0.2903,-0.2916,-0.2907,-0.2921,-0.2919,-0.2917,-0.2922,-0.292,-0.2918,-0.2911,-0.2905,-0.288,-0.2874,-0.2872,-0.287,-0.2868,-0.2874,-0.2865,-0.2863,-0.2884,-0.2884,-0.2884,0,0,-0.2938,-0.2933,-0.2903,-0.2892,-0.289,-0.2896,-0.2912,-0.2893,-0.2906,-0.2914,-0.2912,-0.291,-0.291,-0.2896,-0.2887,-0.289,-0.2852,-0.2865,-0.2863,-0.2871,-0.2862,-0.286,-0.2859,-0.2882,-0.2883,-0.2883,0,0,-0.2871,-0.2851,-0.2815,-0.2828,-0.2835,-0.2851,-0.2848,-0.2859,-0.2867,-0.2864,-0.2882,-0.2875,-0.2862,-0.287,-0.2871,-0.2843,-0.2842,-0.2835,-0.2831,-0.2822,-0.282,-0.2819,-0.2786,-0.2782,-0.283,-0.283,-0.283,0,-0.2834,-0.2807,-0.2802,-0.2803,-0.2812,-0.2836,-0.2836,-0.2845,-0.2853,-0.2859,-0.2861,-0.286,-0.2855,-0.2857,-0.2852,-0.284,-0.2827,-0.2847,-0.2821,-0.282,-0.2819,-0.2785,-0.2781,-0.283,-0.283,-0.283,-0.283,0,-0.2772,-0.2765,-0.2742,-0.276,-0.2768,-0.2756,-0.2796,-0.2802,-0.2818,-0.2838,-0.2838,-0.2835,-0.2839,-0.2832,-0.2835,-0.2826,-0.2814,-0.2824,-0.2835,-0.2817,-0.2781,-0.2777,-0.283,-0.283,-0.283,-0.283,0,0,-0.2641,-0.269,-0.2684,-0.271,-0.2749,-0.2747,-0.2771,-0.2796,-0.281,-0.2819,-0.283,-0.2827,-0.2832,-0.2832,-0.2833,-0.2823,-0.2793,-0.2818,-0.2818,-0.2795,-0.2753,-0.267,-0.2657,-0.2802,-0.2802,-0.2802,-0.2723,0,-0.2596,-0.2607,-0.2643,-0.2655,-0.2665,-0.2719,-0.2742,-0.2774,-0.2796,-0.281,-0.282,-0.2824,-0.2832,-0.2827,-0.2822,-0.2809,-0.2785,-0.2812,-0.2765,-0.2763,-0.2701,-0.2651,-0.253,-0.2443,-0.2719,-0.2718,-0.2718,0,-0.2523,-0.2549,-0.2562,-0.263,-0.2637,-0.2653,-0.2697,-0.2724,-0.2767,-0.2785,-0.2803,-0.2817,-0.2815,-0.2817,-0.279,-0.2808,-0.2777,-0.2761,-0.2758,-0.2682,-0.2672,-0.2509,-0.2425,-0.2405,-0.2711,-0.2712,-0.2712,0,-0.2434,-0.2485,-0.2498,-0.2519,-0.2598,-0.2611,-0.2647,-0.2701,-0.2722,-0.2763,-0.2773,-0.2792,-0.2784,-0.2774,-0.2751,-0.2767,-0.2709,-0.2726,-0.2619,-0.2612,-0.25,-0.2483,-0.2401,-0.2692,-0.2692,-0.2692,-0.2692,0,-0.2366,-0.2369,-0.2458,-0.2462,-0.2473,-0.2552,-0.2564,-0.261,-0.2667,-0.2677,-0.2745,-0.2746,-0.2773,-0.2754,-0.2738,-0.2655,-0.2696,-0.2602,-0.2584,-0.2491,-0.2475,-0.2447,-0.2478,-0.2689,-0.269,-0.269,-0.2691,0,-0.2248,-0.2315,-0.2327,-0.2408,-0.2429,-0.2429,-0.2505,-0.2514,-0.2593,-0.2608,-0.2619,-0.2689,-0.2666,-0.2676,-0.2643,-0.2611,-0.2504,-0.2519,-0.2395,-0.2363,-0.2236,-0.2272,-0.218,-0.2119,-0.2377,-0.2374,-0.2372,0,-0.2185,-0.2183,-0.2256,-0.226,-0.2288,-0.2317,-0.2335,-0.2443,-0.2464,-0.2561,-0.2551,-0.2568,-0.2546,-0.2482,-0.2431,-0.2363,-0.2386,-0.2215,-0.2223,-0.2191,-0.222,-0.2255,-0.2214,-0.2064,-0.2059,-0.2056,-0.2053,0,-0.2055,-0.2083,-0.2102,-0.2118,-0.2134,-0.216,-0.2203,-0.2219,-0.2339,-0.2364,-0.239,-0.2387,-0.2353,-0.2241,-0.2174,-0.2127,-0.215,-0.2135,-0.2137,-0.1987,-0.1986,-0.1929,-0.2152,-0.202,-0.2023,-0.2025,-0.2027,-0.2028,-0.194,-0.1922,-0.1956,-0.1955,-0.1977,-0.1985,-0.1963,-0.2032,-0.2052,-0.2083,-0.2172,-0.2143,-0.21,-0.1986,-0.1933,-0.1807,-0.1898,-0.176,-0.1809,-0.185,-0.1779,-0.1915,-0.1749,-0.1751,-0.1752,-0.1754,-0.1755,0,-0.1796,-0.18,-0.1791,-0.1799,-0.1765,-0.183,-0.1854,-0.182,-0.1797,-0.1867,-0.1869,-0.1852,-0.1728,-0.1712,-0.1602,-0.1519,-0.1495,-0.1493,-0.1524,-0.15,-0.1627,-0.16,-0.1351,-0.1351,-0.1352,-0.1352,-0.1352,-0.1352,-0.1723,-0.1673,-0.1677,-0.1588,-0.1584,-0.1507,-0.149,-0.1467,-0.149,-0.1471,-0.1504,-0.1578,-0.1582,-0.1629,-0.1488,-0.14,-0.1384,-0.1323,-0.1381,-0.1492,-0.1522,-0.1551,-0.1531,-0.1271,-0.1271,-0.1177,-0.1177,-0.1176]},{"header":{"parameterUnit":"m.s-1","parameterCategory":2,"la1":30.2991,"la2":30.254,"lo1":-89.0895,"lo2":-89.0444,"dy":0.0017,"dx":0.0017,"nx":28,"ny":28,"refTime":"2025-01-02T09:00:00:Z","depth":"0","parameterNumber":3,"parameterNumberName":"V-component_of_CURRENTS"},"data":[0,0,0,0,0,0,0,0,0,0,0,0,0,0,0,0,0,0,0,0,0,0,0,0,0,0,0,0,0,0,0,0,0,0,0,0,0,0,0,0,0,0,0,0,0,0,0,0,0,0,0,0,0,0,0,0,0,0,-0.0458,-0.0457,0,-0.035,-0.0349,-0.0347,-0.0289,-0.0289,-0.0289,-0.0289,-0.0168,-0.0165,-0.0162,0,0,0,0,0,0,0,0,0,0,0,0,0,-0.0591,-0.0589,-0.0458,-0.0456,-0.0455,-0.035,-0.0349,-0.0347,-0.0289,-0.0289,-0.0289,-0.0289,-0.0169,-0.0165,-0.0161,0,0,0,0,0,0,0,0,0,0,0,0,0,-0.0513,-0.0588,-0.0458,-0.0414,-0.0409,-0.035,-0.0349,-0.0347,-0.0289,-0.0289,-0.0289,-0.0289,-0.017,-0.0165,-0.0161,-0.0135,0,0,-0.0147,-0.0144,0,0,0,0,0,0,0,0,-0.0518,-0.0508,-0.0422,-0.0417,-0.0411,-0.0333,-0.0351,-0.0275,-0.029,-0.0335,-0.0289,-0.0289,-0.0222,-0.0213,-0.0193,-0.0129,-0.0124,-0.0146,-0.0143,-0.0141,-0.014,0,0,0,0,0,0,0,-0.0523,-0.0512,-0.0415,-0.042,-0.0414,-0.0392,-0.0381,-0.0336,-0.028,-0.0331,-0.0326,-0.0315,-0.0219,-0.0198,-0.019,-0.0122,-0.0146,-0.0142,-0.0139,-0.0137,-0.0032,-0.0032,0,0,0,0,0,0,-0.0538,-0.0517,-0.0418,-0.0412,-0.0465,-0.0389,-0.0377,-0.0358,-0.0281,-0.0269,-0.0315,-0.0312,-0.0206,-0.0195,-0.0185,-0.0162,-0.0141,-0.0137,-0.0134,-0.0032,-0.0032,-0.0032,0,0,0,0,0,0,-0.0541,-0.053,-0.0423,-0.0463,-0.0448,-0.0388,-0.0367,-0.0356,-0.0334,-0.0269,-0.0257,-0.0304,-0.0205,-0.0192,-0.015,-0.0156,-0.0135,-0.013,-0.0032,-0.0032,-0.0032,-0.0107,0,0,0,0,0,0,-0.0545,-0.0531,-0.0525,-0.0464,-0.0446,-0.0395,-0.0366,-0.0354,-0.0327,-0.0323,-0.0255,-0.0244,-0.0204,-0.0158,-0.0146,-0.0149,-0.0127,-0.0032,-0.0032,-0.0032,-0.0104,-0.0109,-0.0114,0,0,0,0,0,-0.055,-0.0538,-0.0525,-0.0513,-0.0438,-0.0396,-0.0385,-0.0342,-0.0327,-0.0321,-0.0276,-0.0246,-0.015,-0.0154,-0.014,-0.0142,-0.0032,-0.0032,-0.0032,-0.0102,-0.0108,-0.0114,0,0,0,0,0,0,-0.0589,-0.0529,-0.0514,-0.0484,-0.0449,-0.0386,-0.0372,-0.0346,-0.0305,-0.0301,-0.0243,-0.0228,-0.0197,-0.0157,-0.0163,-0.0111,-0.0087,-0.0084,-0.0145,-0.015,-0.0155,-0.0168,-0.0123,0,0,0,0,0,-0.0597,-0.0571,-0.052,-0.0497,-0.0483,-0.0431,-0.0409,-0.0382,-0.0337,-0.0318,-0.0273,-0.0225,-0.0185,-0.0159,-0.0119,-0.0086,-0.0042,-0.0078,-0.0083,-0.0087,-0.0088,-0.003,-0.003,-0.0032,-0.0032,-0.0032,0,0,-0.0601,-0.0569,-0.0552,-0.0504,-0.0472,-0.0462,-0.0417,-0.0388,-0.0379,-0.0311,-0.0286,-0.0241,-0.0181,-0.015,-0.0132,-0.0117,-0.0063,-0.0087,-0.0092,-0.009,-0.003,-0.003,-0.003,-0.0032,-0.0032,-0.0032,0,0,-0.0614,-0.0575,-0.057,-0.0549,-0.0512,-0.048,-0.0478,-0.0424,-0.0401,-0.037,-0.0324,-0.0282,-0.0219,-0.0177,-0.0148,-0.0151,-0.0094,-0.014,-0.0167,-0.0112,-0.0112,-0.011,-0.0056,-0.005,-0.0137,-0.0137,-0.0137,0,-0.0626,-0.0614,-0.0563,-0.0565,-0.0553,-0.0497,-0.0503,-0.047,-0.0412,-0.0391,-0.0375,-0.0279,-0.0232,-0.0185,-0.0189,-0.0162,-0.0121,-0.0154,-0.0119,-0.0117,-0.0115,-0.0059,-0.0051,-0.0141,-0.014,-0.014,-0.014,0,-0.0645,-0.0641,-0.0637,-0.0621,-0.0602,-0.0594,-0.0551,-0.053,-0.0496,-0.0457,-0.0406,-0.0338,-0.0279,-0.0259,-0.0225,-0.0185,-0.0158,-0.0138,-0.0109,-0.0119,-0.006,-0.005,-0.0146,-0.0145,-0.0144,-0.0143,0,0,-0.0652,-0.0653,-0.0652,-0.0668,-0.0634,-0.0621,-0.0608,-0.0573,-0.0558,-0.05,-0.047,-0.0401,-0.0355,-0.0319,-0.0264,-0.0213,-0.0164,-0.0174,-0.0169,-0.0128,-0.0039,0.0001,0.0016,-0.0138,-0.0136,-0.0135,-0.0005,0,-0.0686,-0.0719,-0.0699,-0.0725,-0.074,-0.0694,-0.0685,-0.0645,-0.0596,-0.0553,-0.0471,-0.0423,-0.0379,-0.035,-0.0294,-0.0196,-0.0141,-0.0201,-0.0027,-0.0022,0.0008,0.0028,0.006,0.0181,0.0005,0.0007,0.0008,0,-0.0716,-0.0736,-0.0777,-0.079,-0.0788,-0.0791,-0.0761,-0.0745,-0.0668,-0.0627,-0.0559,-0.049,-0.0405,-0.0369,-0.0209,-0.0249,-0.0154,-0.0075,-0.0068,0.0002,0.0036,0.0165,0.0206,0.0345,0.0024,0.0022,0.0021,0,-0.0761,-0.0788,-0.0827,-0.0831,-0.0832,-0.0835,-0.0825,-0.0767,-0.0749,-0.0669,-0.0636,-0.0528,-0.0466,-0.0341,-0.0182,-0.0193,0.0003,0.0009,0.0138,0.0142,0.0221,0.023,0.0412,0.0124,0.0123,0.0123,0.0123,0,-0.0807,-0.0836,-0.0855,-0.0878,-0.0912,-0.0887,-0.0896,-0.0864,-0.081,-0.0782,-0.0679,-0.0622,-0.0456,-0.0322,-0.0187,0.0012,0.0003,0.0142,0.0182,0.0196,0.0201,0.0367,0.0416,0.0128,0.0127,0.0126,0.0125,0,-0.0851,-0.0866,-0.0914,-0.0933,-0.0939,-0.0962,-0.0956,-0.0954,-0.0893,-0.0852,-0.0828,-0.0685,-0.0506,-0.0324,-0.0105,0.001,0.0288,0.0265,0.0269,0.0307,0.0534,0.0576,0.0798,0.088,0.0419,0.0421,0.0422,0,-0.0879,-0.091,-0.0959,-0.099,-0.1003,-0.1027,-0.104,-0.1002,-0.0992,-0.0881,-0.0861,-0.0686,-0.0545,-0.0207,0.0031,0.0287,0.0392,0.0459,0.044,0.0565,0.0642,0.0669,0.0723,0.0521,0.0523,0.0524,0.0526,0,-0.0924,-0.0941,-0.0981,-0.1049,-0.1082,-0.1115,-0.1126,-0.1134,-0.1073,-0.1011,-0.0894,-0.077,-0.0435,-0.0131,0.0198,0.0355,0.0562,0.0503,0.0644,0.0748,0.0782,0.0873,0.0412,0.0542,0.054,0.0539,0.0538,0.0538,-0.0946,-0.0989,-0.1041,-0.11,-0.1145,-0.1187,-0.1205,-0.1195,-0.1165,-0.1057,-0.093,-0.0706,-0.0271,0.0202,0.0382,0.0758,0.0718,0.0862,0.0907,0.0927,0.0998,0.0566,0.0728,0.0728,0.0727,0.0727,0.0726,0,-0.0967,-0.1017,-0.1084,-0.1156,-0.1211,-0.1218,-0.1245,-0.1234,-0.1192,-0.1054,-0.0907,-0.0421,0.0014,0.0419,0.094,0.1145,0.1189,0.1248,0.1302,0.1341,0.0983,0.0977,0.1187,0.1187,0.1187,0.1187,0.1187,0.1187,-0.098,-0.1047,-0.1086,-0.1184,-0.1234,-0.1273,-0.1284,-0.125,-0.1153,-0.0901,-0.063,-0.0414,0.017,0.0988,0.1466,0.1518,0.1684,0.1679,0.1762,0.1515,0.1482,0.1451,0.146,0.1768,0.1769,0.2111,0.2114,0.2117]}],[{"header":{"parameterUnit":"m.s-1","parameterCategory":2,"la1":30.2991,"la2":30.254,"lo1":-89.0895,"lo2":-89.0444,"dy":0.0017,"dx":0.0017,"nx":28,"ny":28,"refTime":"2025-01-02T09:00:00:Z","depth":"2","parameterNumber":2,"parameterNumberName":"U-component_of_CURRENTS"},"data":[0,0,0,0,0,0,0,0,0,0,0,0,0,0,0,0,0,0,0,0,0,0,0,0,0,0,0,0,0,0,0,0,0,0,0,0,0,0,0,0,0,0,0,0,0,0,0,0,0,0,0,0,0,0,0,0,0,0,-0.2519,-0.2519,0,-0.2553,-0.2553,-0.2554,-0.2558,-0.2558,-0.2558,-0.2558,-0.2553,-0.2553,-0.2553,0,0,0,0,0,0,0,0,0,0,0,0,0,-0.2489,-0.2489,-0.2519,-0.2519,-0.252,-0.2553,-0.2553,-0.2554,-0.2558,-0.2558,-0.2558,-0.2558,-0.2553,-0.2553,-0.2553,0,0,0,0,0,0,0,0,0,0,0,0,0,-0.2507,-0.2489,-0.2519,-0.2529,-0.2531,-0.2553,-0.2553,-0.2554,-0.2558,-0.2558,-0.2558,-0.2558,-0.2553,-0.2553,-0.2553,-0.2552,0,0,-0.2552,-0.2552,0,0,0,0,0,0,0,0,-0.2506,-0.2508,-0.2527,-0.2528,-0.253,-0.2555,-0.2541,-0.2552,-0.2558,-0.2544,-0.2558,-0.2558,-0.2552,-0.2552,-0.2554,-0.2552,-0.2552,-0.2552,-0.2552,-0.2552,-0.2552,0,0,0,0,0,0,0,-0.2505,-0.2507,-0.2529,-0.2528,-0.253,-0.2544,-0.2545,-0.2544,-0.2544,-0.2545,-0.2547,-0.2556,-0.2552,-0.2555,-0.2554,-0.2551,-0.2552,-0.2552,-0.2552,-0.2552,-0.2562,-0.2563,0,0,0,0,0,0,-0.2506,-0.2505,-0.2528,-0.253,-0.2522,-0.2544,-0.2546,-0.2544,-0.2545,-0.2547,-0.2556,-0.2556,-0.2555,-0.2554,-0.2554,-0.256,-0.2552,-0.2552,-0.2552,-0.2562,-0.2562,-0.2563,0,0,0,0,0,0,-0.2505,-0.2507,-0.2527,-0.2522,-0.2526,-0.2545,-0.2542,-0.2545,-0.2552,-0.2555,-0.2555,-0.2562,-0.2555,-0.2554,-0.256,-0.2559,-0.2552,-0.2552,-0.2562,-0.2562,-0.2563,-0.2567,0,0,0,0,0,0,-0.2504,-0.2506,-0.2501,-0.2522,-0.2526,-0.2541,-0.2543,-0.2545,-0.2559,-0.256,-0.2559,-0.2559,-0.2555,-0.256,-0.256,-0.2559,-0.2552,-0.2561,-0.2562,-0.2562,-0.2567,-0.2568,-0.2569,0,0,0,0,0,-0.2502,-0.2496,-0.25,-0.2504,-0.252,-0.2542,-0.2545,-0.2556,-0.2559,-0.2562,-0.2566,-0.2559,-0.2564,-0.2561,-0.256,-0.2559,-0.2561,-0.2562,-0.2562,-0.2566,-0.2568,-0.2569,0,0,0,0,0,0,-0.2469,-0.2497,-0.2502,-0.2501,-0.2522,-0.2544,-0.2547,-0.256,-0.2565,-0.2564,-0.2564,-0.2564,-0.257,-0.2566,-0.2562,-0.2565,-0.2561,-0.2562,-0.2564,-0.2565,-0.2567,-0.2566,-0.2551,0,0,0,0,0,-0.2463,-0.2469,-0.2497,-0.2494,-0.2506,-0.2527,-0.2537,-0.2549,-0.2561,-0.2564,-0.2567,-0.2569,-0.2572,-0.2571,-0.2573,-0.2573,-0.2561,-0.2573,-0.2574,-0.2575,-0.2575,-0.2567,-0.2567,-0.2566,-0.2566,-0.2566,0,0,-0.2449,-0.2465,-0.2467,-0.2489,-0.2503,-0.2521,-0.2532,-0.2548,-0.2562,-0.2561,-0.2571,-0.2575,-0.2575,-0.2578,-0.2579,-0.2574,-0.2567,-0.2576,-0.2577,-0.2576,-0.2567,-0.2567,-0.2567,-0.2566,-0.2566,-0.2566,0,0,-0.2431,-0.2439,-0.2443,-0.2465,-0.2495,-0.2513,-0.2521,-0.2548,-0.2557,-0.2572,-0.2576,-0.258,-0.2585,-0.2585,-0.2585,-0.2595,-0.2577,-0.2596,-0.2596,-0.2587,-0.2587,-0.2587,-0.2558,-0.2555,-0.2592,-0.2592,-0.2592,0,-0.2414,-0.242,-0.2447,-0.2462,-0.248,-0.2511,-0.2524,-0.2541,-0.2567,-0.2574,-0.2575,-0.259,-0.2588,-0.2594,-0.2596,-0.2596,-0.2583,-0.2588,-0.2588,-0.2588,-0.2587,-0.2558,-0.2555,-0.2592,-0.2592,-0.2592,-0.2592,0,-0.2403,-0.2415,-0.2419,-0.2451,-0.2474,-0.2488,-0.2526,-0.2543,-0.2559,-0.2576,-0.259,-0.2593,-0.26,-0.26,-0.2599,-0.2599,-0.2587,-0.2593,-0.2582,-0.2587,-0.2556,-0.2553,-0.2592,-0.2592,-0.2592,-0.2592,0,0,-0.2341,-0.2402,-0.2401,-0.2418,-0.2469,-0.2484,-0.2515,-0.2545,-0.256,-0.2581,-0.2592,-0.2602,-0.2607,-0.2608,-0.2609,-0.2601,-0.258,-0.2594,-0.2594,-0.2561,-0.2546,-0.2464,-0.2452,-0.2587,-0.2587,-0.2586,-0.252,0,-0.232,-0.2347,-0.2386,-0.2408,-0.2424,-0.2474,-0.2501,-0.2536,-0.2561,-0.258,-0.2593,-0.2603,-0.261,-0.2609,-0.2606,-0.2593,-0.2574,-0.2596,-0.255,-0.2548,-0.2471,-0.2447,-0.2269,-0.2189,-0.2516,-0.2516,-0.2515,0,-0.2282,-0.2311,-0.2333,-0.2392,-0.2403,-0.2424,-0.2469,-0.2499,-0.2544,-0.2564,-0.2586,-0.2601,-0.2603,-0.2604,-0.2582,-0.2597,-0.2569,-0.2554,-0.2551,-0.2472,-0.246,-0.224,-0.217,-0.2509,-0.251,-0.251,-0.251,0,-0.2208,-0.2265,-0.228,-0.23,-0.2375,-0.2391,-0.2427,-0.2482,-0.2504,-0.2549,-0.2562,-0.2584,-0.258,-0.2571,-0.2551,-0.2563,-0.2514,-0.2526,-0.2423,-0.2417,-0.2254,-0.2233,-0.2496,-0.2496,-0.2496,-0.2496,-0.2496,0,-0.2158,-0.2164,-0.2246,-0.2253,-0.2268,-0.2342,-0.236,-0.2405,-0.2461,-0.2474,-0.2541,-0.2543,-0.2572,-0.2557,-0.2541,-0.2463,-0.2503,-0.2409,-0.2392,-0.2249,-0.2229,-0.2506,-0.2508,-0.2494,-0.2494,-0.2495,-0.2495,0,-0.2055,-0.2117,-0.2132,-0.2209,-0.223,-0.2235,-0.2309,-0.2319,-0.2398,-0.2415,-0.2427,-0.2496,-0.2476,-0.2487,-0.2458,-0.2426,-0.2378,-0.2338,-0.216,-0.2122,-0.2286,-0.229,-0.2208,-0.2205,-0.2202,-0.22,-0.2197,0,-0.2,-0.2001,-0.2072,-0.2077,-0.2104,-0.2137,-0.2154,-0.2257,-0.2277,-0.2371,-0.2361,-0.2382,-0.2357,-0.23,-0.2247,-0.2181,-0.2277,-0.1987,-0.1979,-0.2264,-0.2256,-0.2264,-0.2271,-0.1759,-0.1754,-0.1749,-0.1745,0,-0.1886,-0.1914,-0.1933,-0.195,-0.1967,-0.1992,-0.2034,-0.2046,-0.2158,-0.218,-0.2201,-0.2196,-0.2162,-0.202,-0.1959,-0.1906,-0.1989,-0.1892,-0.2221,-0.1869,-0.1837,-0.1831,-0.1853,-0.1705,-0.1709,-0.1712,-0.1715,-0.1716,-0.1785,-0.177,-0.1803,-0.1803,-0.1824,-0.1829,-0.1807,-0.1865,-0.1878,-0.1896,-0.1981,-0.1925,-0.1916,-0.1726,-0.1636,-0.1577,-0.1718,-0.165,-0.1665,-0.1684,-0.1654,-0.162,-0.144,-0.1442,-0.1444,-0.1446,-0.1447,0,-0.1657,-0.166,-0.1653,-0.166,-0.1627,-0.169,-0.1704,-0.1665,-0.163,-0.1672,-0.1665,-0.15,-0.1401,-0.141,-0.125,-0.1217,-0.1216,-0.117,-0.1173,-0.1213,-0.1248,-0.1197,-0.0861,-0.0859,-0.0858,-0.0856,0,0,-0.1592,-0.1547,-0.1547,-0.1462,-0.1459,-0.1384,-0.1362,-0.1327,-0.1327,-0.1263,-0.1239,-0.1337,-0.1368,-0.1122,-0.1054,-0.0935,-0.1067,-0.0884,-0.1351,-0.1394,-0.1428,-0.1517,-0.1481,0,0,0,0,0]},{"header":{"parameterUnit":"m.s-1","parameterCategory":2,"la1":30.2991,"la2":30.254,"lo1":-89.0895,"lo2":-89.0444,"dy":0.0017,"dx":0.0017,"nx":28,"ny":28,"refTime":"2025-01-02T09:00:00:Z","depth":"2","parameterNumber":3,"parameterNumberName":"V-component_of_CURRENTS"},"data":[0,0,0,0,0,0,0,0,0,0,0,0,0,0,0,0,0,0,0,0,0,0,0,0,0,0,0,0,0,0,0,0,0,0,0,0,0,0,0,0,0,0,0,0,0,0,0,0,0,0,0,0,0,0,0,0,0,0,-0.0241,-0.0241,0,-0.0164,-0.0163,-0.0161,-0.0103,-0.0103,-0.0102,-0.0102,0.0008,0.0011,0.0013,0,0,0,0,0,0,0,0,0,0,0,0,0,-0.0293,-0.0293,-0.0242,-0.0241,-0.024,-0.0164,-0.0162,-0.0161,-0.0103,-0.0103,-0.0102,-0.0102,0.0007,0.001,0.0013,0,0,0,0,0,0,0,0,0,0,0,0,0,-0.0246,-0.0292,-0.0242,-0.0204,-0.02,-0.0164,-0.0162,-0.0161,-0.0103,-0.0103,-0.0102,-0.0102,0.0006,0.001,0.0014,0.0029,0,0,0.0026,0.0028,0,0,0,0,0,0,0,0,-0.0249,-0.0244,-0.021,-0.0206,-0.0202,-0.0145,-0.014,-0.0096,-0.0103,-0.0137,-0.0102,-0.0102,-0.0042,-0.0034,-0.0017,0.0035,0.0039,0.0026,0.0029,0.003,0.0032,0,0,0,0,0,0,0,-0.0253,-0.0247,-0.0208,-0.0209,-0.0204,-0.0175,-0.0168,-0.0131,-0.0091,-0.0134,-0.013,-0.0126,-0.0039,-0.0021,-0.0014,0.0041,0.0026,0.003,0.0032,0.0034,0.0118,0.0118,0,0,0,0,0,0,-0.027,-0.025,-0.0211,-0.0206,-0.0228,-0.0175,-0.0167,-0.0161,-0.0092,-0.0081,-0.0126,-0.0123,-0.0028,-0.0019,-0.001,0.0011,0.003,0.0034,0.0036,0.0118,0.0118,0.0118,0,0,0,0,0,0,-0.0271,-0.0267,-0.0214,-0.0228,-0.022,-0.0175,-0.0169,-0.016,-0.0144,-0.0086,-0.0075,-0.012,-0.0028,-0.0016,0.0018,0.0016,0.0036,0.004,0.0118,0.0118,0.0118,0.0055,0,0,0,0,0,0,-0.0273,-0.0268,-0.0271,-0.023,-0.022,-0.0201,-0.0169,-0.0159,-0.0143,-0.0138,-0.0077,-0.0066,-0.0026,0.0011,0.0022,0.0022,0.0043,0.0119,0.0118,0.0118,0.0057,0.0053,0.0049,0,0,0,0,0,-0.0275,-0.0284,-0.0272,-0.0267,-0.0225,-0.0202,-0.0194,-0.0158,-0.0144,-0.0141,-0.0099,-0.0068,0.0017,0.0014,0.0026,0.0028,0.0119,0.0118,0.0118,0.0059,0.0054,0.0049,0,0,0,0,0,0,-0.0302,-0.0277,-0.0264,-0.0262,-0.0238,-0.0193,-0.0189,-0.0165,-0.013,-0.0126,-0.007,-0.0056,-0.0029,0.0007,0.0003,0.0051,0.0073,0.0075,0.0024,0.0019,0.0015,0.0006,0.0046,0,0,0,0,0,-0.0313,-0.0315,-0.0282,-0.0281,-0.0274,-0.0233,-0.022,-0.0197,-0.0161,-0.0145,-0.0103,-0.0058,-0.002,0.0004,0.004,0.0068,0.0107,0.0077,0.0073,0.0069,0.0069,0.0122,0.0123,0.0117,0.0117,0.0117,0,0,-0.0324,-0.031,-0.0311,-0.0288,-0.0266,-0.0261,-0.0223,-0.021,-0.02,-0.0139,-0.0115,-0.0075,-0.0018,0.0011,0.0027,0.0042,0.009,0.0068,0.0064,0.0068,0.0122,0.0123,0.0123,0.0117,0.0117,0.0117,0,0,-0.0351,-0.0335,-0.0348,-0.0333,-0.0312,-0.0286,-0.0287,-0.0247,-0.0225,-0.0199,-0.0153,-0.0114,-0.0059,-0.0014,0.0014,0.0009,0.0061,0.0018,-0.0003,0.0048,0.0049,0.005,0.0096,0.0102,0.0022,0.0022,0.0022,0,-0.0366,-0.0374,-0.0347,-0.0354,-0.0347,-0.0303,-0.0311,-0.0282,-0.0235,-0.0216,-0.0202,-0.0113,-0.0069,-0.002,-0.0021,0.0,0.0035,0.001,0.0042,0.0044,0.0047,0.0094,0.0101,0.0019,0.0019,0.002,0.002,0,-0.04,-0.0407,-0.0413,-0.0408,-0.0396,-0.0396,-0.0358,-0.034,-0.031,-0.0273,-0.0226,-0.0162,-0.0107,-0.0087,-0.0055,-0.0014,0.0006,0.0024,0.0052,0.0044,0.0094,0.0103,0.0014,0.0016,0.0016,0.0017,0,0,-0.0432,-0.0438,-0.044,-0.0452,-0.0426,-0.0422,-0.0406,-0.0375,-0.0362,-0.0308,-0.028,-0.021,-0.017,-0.0135,-0.0084,-0.0034,0.0011,-0.0002,0.0002,0.0038,0.0121,0.0146,0.0158,0.0033,0.0035,0.0036,0.0147,0,-0.0468,-0.0504,-0.0488,-0.0513,-0.0528,-0.0486,-0.0475,-0.0438,-0.0395,-0.0356,-0.0276,-0.0232,-0.0188,-0.0163,-0.0108,-0.002,0.0032,-0.0021,0.0129,0.0134,0.0153,0.0169,0.0145,0.0243,0.0156,0.0157,0.0159,0,-0.0505,-0.0526,-0.0564,-0.0573,-0.0573,-0.0575,-0.0549,-0.0533,-0.0461,-0.0425,-0.036,-0.0296,-0.0213,-0.0179,-0.003,-0.0067,0.0019,0.009,0.0096,0.0149,0.0175,0.024,0.0263,0.0174,0.0173,0.0172,0.0171,0,-0.055,-0.0576,-0.0612,-0.0615,-0.0614,-0.0617,-0.0608,-0.0555,-0.054,-0.0465,-0.0439,-0.0333,-0.0278,-0.0159,-0.0013,-0.0021,0.0154,0.0163,0.0271,0.0273,0.0299,0.0301,0.0271,0.0271,0.027,0.027,0.027,0,-0.0597,-0.0624,-0.064,-0.0661,-0.0695,-0.067,-0.0682,-0.0652,-0.0604,-0.0582,-0.0481,-0.0432,-0.0271,-0.0149,-0.0021,0.0155,0.0152,0.0274,0.0308,0.0275,0.0275,0.0251,0.0247,0.0274,0.0273,0.0272,0.0272,0,-0.0641,-0.0652,-0.0697,-0.0715,-0.0721,-0.0745,-0.0744,-0.0745,-0.069,-0.0658,-0.0636,-0.0501,-0.034,-0.0167,0.0036,0.0143,0.0309,0.0372,0.0321,0.0347,0.0394,0.0386,0.0499,0.0501,0.0503,0.0504,0.0505,0,-0.0669,-0.0697,-0.0744,-0.0775,-0.0787,-0.0814,-0.0829,-0.0795,-0.0788,-0.0693,-0.0677,-0.052,-0.0392,-0.0085,0.0131,0.0366,0.0365,0.0473,0.0457,0.0399,0.042,0.0409,0.0399,0.0467,0.0467,0.0468,0.0468,0,-0.0716,-0.0731,-0.0769,-0.0836,-0.087,-0.0904,-0.0918,-0.0929,-0.0874,-0.0822,-0.0719,-0.0607,-0.0312,-0.0057,0.0239,0.0374,0.0431,0.0493,0.0464,0.0405,0.0375,0.0393,0.0383,0.0473,0.0473,0.0473,0.0472,0.0472,-0.0742,-0.0783,-0.0833,-0.0891,-0.0937,-0.0978,-0.0997,-0.0988,-0.0965,-0.0868,-0.0759,-0.0559,-0.0318,0.0108,0.0317,0.051,0.0507,0.0558,0.0553,0.0548,0.0517,0.0491,0.0606,0.0606,0.0606,0.0606,0.0607,0,-0.077,-0.0816,-0.0881,-0.0951,-0.1005,-0.1012,-0.1039,-0.1027,-0.0989,-0.0867,-0.0735,-0.0452,-0.0157,0.0098,0.0408,0.0588,0.057,0.0614,0.0553,0.0548,0.0543,0.0508,0.0597,0.0597,0.0598,0.0598,0,0,-0.0786,-0.0851,-0.0886,-0.0982,-0.1031,-0.1072,-0.1082,-0.1043,-0.0954,-0.0824,-0.0668,-0.0456,-0.0143,0.007,0.0297,0.0457,0.0454,0.0472,0.0463,0.0361,0.0354,0.0498,0.0438,0,0,0,0,0]}],[{"header":{"parameterUnit":"m.s-1","parameterCategory":2,"la1":30.2991,"la2":30.254,"lo1":-89.0895,"lo2":-89.0444,"dy":0.0017,"dx":0.0017,"nx":28,"ny":28,"refTime":"2025-01-02T09:00:00:Z","depth":"4","parameterNumber":2,"parameterNumberName":"U-component_of_CURRENTS"},"data":[0,0,0,0,0,0,0,0,0,0,0,0,0,0,0,0,0,0,0,0,0,0,0,0,0,0,0,0,0,0,0,0,0,0,0,0,0,0,0,0,0,0,0,0,0,0,0,0,0,0,0,0,0,0,0,0,0,0,-0.1725,-0.1726,0,-0.1801,-0.1802,-0.1803,-0.1831,-0.1831,-0.1831,-0.1831,-0.1891,-0.1892,-0.1894,0,0,0,0,0,0,0,0,0,0,0,0,0,-0.1589,-0.1591,-0.1725,-0.1727,-0.1728,-0.1801,-0.1802,-0.1803,-0.1831,-0.1831,-0.1831,-0.1831,-0.189,-0.1892,-0.1894,0,0,0,0,0,0,0,0,0,0,0,0,0,-0.1653,-0.1592,-0.1725,-0.1753,-0.1756,-0.1801,-0.1802,-0.1803,-0.1831,-0.1831,-0.1831,-0.1831,-0.1889,-0.1892,-0.1894,-0.1909,0,0,-0.1901,-0.1903,0,0,0,0,0,0,0,0,-0.1649,-0.1657,-0.1747,-0.1751,-0.1755,-0.1809,-0.1776,-0.1839,-0.1831,-0.18,-0.1831,-0.1831,-0.1864,-0.1868,-0.1879,-0.1912,-0.1915,-0.1902,-0.1903,-0.1904,-0.1905,0,0,0,0,0,0,0,-0.1645,-0.1654,-0.1753,-0.1749,-0.1753,-0.1756,-0.1765,-0.1788,-0.1828,-0.1802,-0.1805,-0.1818,-0.1865,-0.1877,-0.1881,-0.1915,-0.1902,-0.1904,-0.1905,-0.1906,-0.2023,-0.2024,0,0,0,0,0,0,-0.1642,-0.165,-0.1751,-0.1755,-0.1704,-0.1759,-0.1768,-0.1789,-0.1829,-0.1836,-0.1818,-0.1819,-0.1872,-0.1878,-0.1883,-0.1948,-0.1904,-0.1906,-0.1908,-0.2021,-0.2023,-0.2025,0,0,0,0,0,0,-0.1639,-0.165,-0.1747,-0.1706,-0.1719,-0.1761,-0.1784,-0.1791,-0.1833,-0.1841,-0.1847,-0.1857,-0.1873,-0.1879,-0.193,-0.1949,-0.1907,-0.191,-0.2019,-0.2022,-0.2024,-0.205,0,0,0,0,0,0,-0.1634,-0.1649,-0.1677,-0.1706,-0.1721,-0.1792,-0.1785,-0.1793,-0.184,-0.1843,-0.1876,-0.188,-0.1873,-0.1926,-0.1932,-0.1951,-0.1912,-0.2017,-0.202,-0.2023,-0.2047,-0.2053,-0.2058,0,0,0,0,0,-0.1629,-0.1663,-0.1678,-0.1691,-0.1754,-0.1793,-0.1802,-0.1829,-0.1842,-0.1866,-0.1891,-0.188,-0.195,-0.193,-0.1936,-0.1957,-0.2015,-0.2019,-0.2023,-0.2045,-0.2052,-0.2058,0,0,0,0,0,0,-0.1622,-0.167,-0.1686,-0.1735,-0.1771,-0.1799,-0.1831,-0.1851,-0.1891,-0.1902,-0.1906,-0.1912,-0.1961,-0.1964,-0.1942,-0.2001,-0.1979,-0.1985,-0.1994,-0.2001,-0.2006,-0.1993,-0.1914,0,0,0,0,0,-0.1633,-0.1671,-0.1711,-0.1753,-0.1775,-0.1811,-0.1837,-0.1857,-0.189,-0.1909,-0.1932,-0.1957,-0.1977,-0.1995,-0.2015,-0.2054,-0.2035,-0.2071,-0.2077,-0.2081,-0.2076,-0.2072,-0.2075,-0.2037,-0.2037,-0.2037,0,0,-0.1645,-0.1675,-0.17,-0.1755,-0.1786,-0.1817,-0.1827,-0.1877,-0.1904,-0.1909,-0.1965,-0.1984,-0.1995,-0.2031,-0.2053,-0.2039,-0.2084,-0.2086,-0.2089,-0.2082,-0.2076,-0.2079,-0.2082,-0.204,-0.2039,-0.2039,0,0,-0.1665,-0.1713,-0.1743,-0.1775,-0.1828,-0.1848,-0.1871,-0.1919,-0.1946,-0.2,-0.2004,-0.2037,-0.2083,-0.2083,-0.2088,-0.2142,-0.2116,-0.2158,-0.2172,-0.2168,-0.217,-0.2172,-0.2149,-0.2149,-0.2157,-0.2157,-0.2157,0,-0.1676,-0.1716,-0.1758,-0.1788,-0.1817,-0.1865,-0.1895,-0.193,-0.1989,-0.201,-0.2024,-0.2086,-0.2099,-0.2122,-0.2138,-0.2151,-0.2141,-0.2141,-0.2172,-0.2173,-0.2175,-0.2151,-0.215,-0.2159,-0.2159,-0.2159,-0.2159,0,-0.17,-0.1744,-0.1767,-0.1817,-0.1855,-0.1894,-0.194,-0.1986,-0.2028,-0.2052,-0.2108,-0.213,-0.2158,-0.2172,-0.2171,-0.2192,-0.218,-0.2179,-0.2146,-0.2179,-0.2153,-0.2152,-0.2162,-0.2161,-0.216,-0.216,0,0,-0.1685,-0.1767,-0.1776,-0.1802,-0.1874,-0.1902,-0.1959,-0.2009,-0.2042,-0.2101,-0.2132,-0.2175,-0.2191,-0.2199,-0.2208,-0.2208,-0.2208,-0.2201,-0.22,-0.2164,-0.2188,-0.2045,-0.203,-0.2214,-0.2215,-0.2215,-0.2164,0,-0.1688,-0.174,-0.1785,-0.1838,-0.1866,-0.1929,-0.1972,-0.2026,-0.2075,-0.2119,-0.215,-0.2187,-0.22,-0.2218,-0.2222,-0.2216,-0.2207,-0.2221,-0.2175,-0.2173,-0.2029,-0.2024,-0.2215,-0.2163,-0.2162,-0.2162,-0.2162,0,-0.1676,-0.1717,-0.1769,-0.1842,-0.1862,-0.1904,-0.1978,-0.2024,-0.2091,-0.2129,-0.2172,-0.2199,-0.2222,-0.2225,-0.2221,-0.2233,-0.2212,-0.2201,-0.2198,-0.2051,-0.2026,-0.2126,-0.2158,-0.2159,-0.2159,-0.2159,-0.2159,0,-0.1614,-0.1697,-0.1738,-0.1765,-0.1859,-0.1898,-0.195,-0.2026,-0.206,-0.2134,-0.216,-0.22,-0.2216,-0.2213,-0.2202,-0.2215,-0.2178,-0.2188,-0.2036,-0.2026,-0.2159,-0.2158,-0.2169,-0.2169,-0.2169,-0.2169,-0.2169,0,-0.1572,-0.1606,-0.1718,-0.1738,-0.1786,-0.1868,-0.1921,-0.198,-0.2053,-0.2074,-0.2158,-0.2164,-0.2215,-0.2206,-0.2195,-0.2096,-0.217,-0.2021,-0.1997,-0.2173,-0.2174,-0.2157,-0.2157,-0.2167,-0.2168,-0.2168,-0.2168,0,-0.1481,-0.156,-0.1609,-0.172,-0.1756,-0.1789,-0.1893,-0.1917,-0.2011,-0.2039,-0.206,-0.2132,-0.2113,-0.2135,-0.2116,-0.2058,-0.1999,-0.1947,-0.2118,-0.2108,-0.1853,-0.1855,-0.1762,-0.1756,-0.1752,-0.1748,-0.1744,0,-0.1432,-0.1452,-0.1574,-0.1601,-0.1654,-0.1724,-0.1759,-0.1875,-0.1895,-0.1993,-0.1979,-0.2009,-0.2034,-0.1885,-0.1936,-0.1879,-0.1865,-0.1824,-0.1848,-0.1822,-0.1809,-0.1819,-0.1827,-0.1737,-0.1736,-0.1734,-0.1733,0,-0.1334,-0.1395,-0.1438,-0.1497,-0.1548,-0.1592,-0.1656,-0.1657,-0.1769,-0.1871,-0.1835,-0.182,-0.1788,-0.1772,-0.1733,-0.1704,-0.1847,-0.1774,-0.1784,-0.1806,-0.1791,-0.1785,-0.1798,-0.1717,-0.1719,-0.172,-0.1721,0,-0.1259,-0.1266,-0.1336,-0.1368,-0.1428,-0.1435,-0.1491,-0.1508,-0.1548,-0.1663,-0.1641,-0.1686,-0.1755,-0.1679,-0.1649,-0.1599,-0.1582,-0.154,-0.1562,-0.1581,-0.1546,-0.1502,-0.1298,0,0,0,0,0,-0.1177,-0.1174,-0.1198,-0.1235,-0.1286,-0.1321,-0.1404,-0.1465,-0.1574,-0.1495,-0.1565,-0.1531,-0.1487,-0.1519,-0.1426,-0.157,-0.1591,-0.1458,-0.1556,-0.1625,-0.1644,-0.1622,0,0,0,0,0,0,-0.1125,-0.115,-0.1155,-0.1111,-0.1106,-0.1151,-0.1197,-0.1276,-0.1246,-0.1361,-0.1339,-0.1429,-0.1405,-0.1502,-0.139,-0.1398,-0.1426,-0.1496,-0.1491,-0.1614,-0.1631,-0.1647,-0.1631,0,0,0,0,0]},{"header":{"parameterUnit":"m.s-1","parameterCategory":2,"la1":30.2991,"la2":30.254,"lo1":-89.0895,"lo2":-89.0444,"dy":0.0017,"dx":0.0017,"nx":28,"ny":28,"refTime":"2025-01-02T09:00:00:Z","depth":"4","parameterNumber":3,"parameterNumberName":"V-component_of_CURRENTS"},"data":[0,0,0,0,0,0,0,0,0,0,0,0,0,0,0,0,0,0,0,0,0,0,0,0,0,0,0,0,0,0,0,0,0,0,0,0,0,0,0,0,0,0,0,0,0,0,0,0,0,0,0,0,0,0,0,0,0,0,-0.0142,-0.0142,0,-0.0091,-0.009,-0.0089,-0.0048,-0.0048,-0.0048,-0.0047,0.0037,0.0039,0.0041,0,0,0,0,0,0,0,0,0,0,0,0,0,-0.0154,-0.0154,-0.0142,-0.0142,-0.0141,-0.0091,-0.009,-0.0089,-0.0048,-0.0048,-0.0048,-0.0047,0.0037,0.0039,0.0041,0,0,0,0,0,0,0,0,0,0,0,0,0,-0.0129,-0.0154,-0.0142,-0.0116,-0.0113,-0.0091,-0.009,-0.0089,-0.0048,-0.0048,-0.0047,-0.0047,0.0036,0.0039,0.0042,0.0054,0,0,0.0051,0.0052,0,0,0,0,0,0,0,0,-0.013,-0.0128,-0.012,-0.0118,-0.0115,-0.0077,-0.0063,-0.004,-0.0048,-0.0071,-0.0047,-0.0047,0.0,0.0006,0.0018,0.0058,0.0062,0.0051,0.0053,0.0055,0.0055,0,0,0,0,0,0,0,-0.0132,-0.013,-0.012,-0.012,-0.0117,-0.009,-0.0086,-0.0058,-0.0035,-0.0069,-0.0066,-0.0064,0.0002,0.0015,0.002,0.0063,0.0051,0.0054,0.0056,0.0057,0.0126,0.0126,0,0,0,0,0,0,-0.0146,-0.0132,-0.0121,-0.0118,-0.0124,-0.0091,-0.0086,-0.0088,-0.0036,-0.0029,-0.0064,-0.0062,0.0009,0.0017,0.0023,0.0042,0.0055,0.0057,0.0059,0.0126,0.0126,0.0126,0,0,0,0,0,0,-0.0146,-0.0146,-0.0123,-0.0125,-0.0121,-0.0091,-0.0093,-0.0087,-0.0077,-0.0034,-0.0025,-0.0061,0.001,0.0019,0.0045,0.0046,0.0059,0.0062,0.0126,0.0126,0.0126,0.0079,0,0,0,0,0,0,-0.0147,-0.0146,-0.0153,-0.0126,-0.0121,-0.0116,-0.0094,-0.0087,-0.0077,-0.0074,-0.0028,-0.002,0.0011,0.004,0.0048,0.005,0.0064,0.0126,0.0126,0.0126,0.0081,0.0077,0.0075,0,0,0,0,0,-0.0148,-0.0159,-0.0154,-0.0153,-0.0132,-0.0117,-0.0112,-0.0088,-0.0078,-0.0077,-0.0045,-0.0021,0.0046,0.0042,0.0051,0.0055,0.0126,0.0126,0.0126,0.0082,0.0078,0.0075,0,0,0,0,0,0,-0.0166,-0.0155,-0.0149,-0.0156,-0.0142,-0.0111,-0.011,-0.0094,-0.0068,-0.0066,-0.0023,-0.0012,0.001,0.0038,0.0033,0.0075,0.009,0.0092,0.0054,0.005,0.0047,0.0039,0.0067,0,0,0,0,0,-0.0175,-0.0183,-0.0164,-0.0171,-0.0167,-0.014,-0.0132,-0.0117,-0.0091,-0.008,-0.0048,-0.0013,0.0017,0.0037,0.0065,0.0088,0.0119,0.0097,0.0094,0.0092,0.0092,0.0136,0.0137,0.0126,0.0126,0.0126,0,0,-0.0184,-0.018,-0.0184,-0.0175,-0.0162,-0.016,-0.0134,-0.0128,-0.0121,-0.0075,-0.0057,-0.0026,0.0019,0.0044,0.0057,0.0069,0.011,0.0092,0.0089,0.0091,0.0136,0.0137,0.0138,0.0126,0.0126,0.0126,0,0,-0.0206,-0.0203,-0.0216,-0.0208,-0.0197,-0.018,-0.0182,-0.0156,-0.014,-0.0122,-0.0086,-0.0054,-0.0012,0.0026,0.005,0.0049,0.0088,0.0056,0.0042,0.0084,0.0086,0.0087,0.0122,0.0127,0.0061,0.0061,0.006,0,-0.0218,-0.0232,-0.0217,-0.0224,-0.0222,-0.0193,-0.0201,-0.018,-0.0148,-0.0134,-0.0124,-0.0054,-0.0017,0.0025,0.0026,0.0043,0.0069,0.005,0.008,0.0082,0.0085,0.012,0.0126,0.0058,0.0059,0.0059,0.0059,0,-0.0245,-0.0257,-0.0264,-0.0265,-0.0259,-0.0263,-0.0236,-0.0225,-0.0205,-0.0177,-0.014,-0.0088,-0.0045,-0.0026,0.0,0.0037,0.005,0.0065,0.0087,0.0083,0.012,0.0127,0.0055,0.0056,0.0057,0.0057,0,0,-0.0272,-0.0283,-0.0286,-0.0298,-0.0283,-0.0283,-0.0272,-0.0252,-0.0245,-0.0202,-0.0183,-0.0122,-0.0092,-0.0062,-0.002,0.0023,0.0062,0.0048,0.0051,0.0077,0.015,0.0133,0.014,0.008,0.0081,0.0082,0.0167,0,-0.0299,-0.0331,-0.0322,-0.0347,-0.036,-0.0333,-0.0327,-0.0301,-0.0271,-0.0244,-0.0177,-0.0145,-0.0105,-0.0086,-0.0037,0.0035,0.0079,0.0037,0.0154,0.0157,0.014,0.0147,0.0086,0.0173,0.0175,0.0176,0.0177,0,-0.0328,-0.0348,-0.0382,-0.0396,-0.0399,-0.0405,-0.0394,-0.0383,-0.033,-0.0304,-0.0252,-0.0201,-0.0128,-0.01,0.0027,-0.0004,0.0066,0.0125,0.013,0.0137,0.0154,0.0181,0.019,0.0189,0.0188,0.0187,0.0186,0,-0.0361,-0.0388,-0.0421,-0.0426,-0.0433,-0.0442,-0.0441,-0.0405,-0.0398,-0.0342,-0.0326,-0.0234,-0.0191,-0.0088,0.0032,0.0029,0.017,0.0183,0.0238,0.0238,0.0248,0.0246,0.0272,0.0272,0.0272,0.0272,0.0271,0,-0.0391,-0.0419,-0.0445,-0.0464,-0.0502,-0.0487,-0.0509,-0.049,-0.0459,-0.0447,-0.0364,-0.0328,-0.0188,-0.0089,0.0022,0.0149,0.0165,0.0237,0.026,0.0225,0.022,0.0253,0.025,0.0275,0.0274,0.0273,0.0273,0,-0.042,-0.0436,-0.0481,-0.0509,-0.0522,-0.055,-0.0568,-0.0575,-0.0539,-0.0521,-0.0505,-0.0397,-0.0267,-0.0121,0.005,0.0126,0.0257,0.03,0.0247,0.0266,0.0299,0.0292,0.0365,0.0365,0.0366,0.0366,0.0366,0,-0.0437,-0.0463,-0.0522,-0.0557,-0.0575,-0.0613,-0.0635,-0.0619,-0.0618,-0.0557,-0.0544,-0.0427,-0.0338,-0.0102,0.0042,0.0249,0.0277,0.0333,0.0321,0.0294,0.0309,0.0302,0.0296,0.0366,0.0366,0.0366,0.0366,0,-0.0467,-0.0492,-0.053,-0.0603,-0.0646,-0.0687,-0.0712,-0.0718,-0.0686,-0.0658,-0.056,-0.0433,-0.0289,-0.0106,0.005,0.0199,0.0289,0.0335,0.0336,0.0325,0.0296,0.0309,0.0303,0.0367,0.0366,0.0366,0.0366,0,-0.0487,-0.0524,-0.0578,-0.0637,-0.0698,-0.0736,-0.0749,-0.0731,-0.0719,-0.064,-0.061,-0.044,-0.0341,-0.0131,0.0017,0.0155,0.0188,0.0223,0.023,0.0232,0.0164,0.0105,0.0139,0,0,0,0,0,-0.05,-0.0542,-0.0605,-0.0671,-0.0732,-0.0759,-0.0785,-0.0783,-0.0755,-0.069,-0.0645,-0.05,-0.0273,-0.017,-0.0033,0.0005,0.0196,0.0167,0.0236,0.0369,0.0369,0.031,0,0,0,0,0,0,-0.051,-0.0573,-0.0605,-0.0681,-0.0728,-0.0784,-0.0801,-0.0784,-0.0733,-0.0685,-0.0556,-0.048,-0.0254,-0.0346,-0.0032,0.0009,0.0067,0.028,0.0282,0.037,0.0369,0.0369,0.0308,0,0,0,0,0]}]]